User: anonymous
Location: Unspecified
(0.0000°N, 0.0000°E)
Time: 16:29:45
(UTC+00:00)
Language:

ETS 8 - Orbit

View from above orbital plane
View from above orbital plane
View from above satellite
View from above satellite

Ground track
Ground track

The orbit data is extracted from the following two-line orbital elements,

1 29656U 06059A   14274.51747823 -.00000252  00000-0  00000+0 0  5077
2 29656 003.7261 065.8106 0005278 104.8985 171.5258 01.00271622 28552
Epoch (UTC): 01 October 2014 12:25:10
Eccentricity: 0.0005278
inclination: 3.7261°
perigee height: 35764 km
apogee height: 35808 km
right ascension of ascending node: 65.8106°
argument of perigee: 104.8985°
revolutions per day: 1.00271622
mean anomaly at epoch: 171.5258°
orbit number at epoch: 2855

The dashed part of the orbit path shows where the satellite is in the earth's shadow,  

DLR